• In Netherlands
  • List of Countries
  • For 7 days
  • Water Temperature
  • Satellite Maps
  • Weather Map
  • Weather Widgets
  • user-avatar
    Login

    Hourly Weather Etchmiadzin

    Today, 25 April, Tuesday

    Time Temperature Precipitation Wind Pressure Humidity
    00:00 +9°C° 0 mm 2 mps 685 mmHg 65%
    01:00 +9°C° 0 mm 2 mps 685 mmHg 66%
    02:00 +8°C° 0 mm 2 mps 685 mmHg 66%
    03:00 +8°C° 0 mm 2 mps 684 mmHg 68%
    04:00 +8°C° 0 mm 2 mps 685 mmHg 67%
    05:00 +8°C° 0 mm 2 mps 685 mmHg 66%
    06:00 +8°C° 0 mm 2 mps 686 mmHg 65%
    07:00 +10°C° 0 mm 2 mps 686 mmHg 57%
    08:00 +12°C° 0 mm 2 mps 686 mmHg 50%
    09:00 +14°C° 0 mm 2 mps 687 mmHg 42%
    10:00 +15°C° 0 mm 2 mps 687 mmHg 38%
    11:00 +16°C° 0 mm 3 mps 687 mmHg 34%
    12:00 +17°C° 0 mm 3 mps 687 mmHg 30%
    13:00 +18°C° 0 mm 3 mps 687 mmHg 30%
    14:00 +18°C° 0 mm 3 mps 687 mmHg 29%
    15:00 +18°C° 0 mm 3 mps 687 mmHg 28%
    16:00 +17°C° 0 mm 3 mps 687 mmHg 31%
    17:00 +16°C° 0 mm 3 mps 688 mmHg 35%
    18:00 +14°C° 0 mm 3 mps 688 mmHg 38%
    19:00 +12°C° 0 mm 3 mps 688 mmHg 45%
    20:00 +10°C° 0 mm 3 mps 689 mmHg 52%
    21:00 +8°C° 0 mm 2 mps 690 mmHg 59%
    22:00 +8°C° 0 mm 2 mps 690 mmHg 61%
    23:00 +7°C° 0 mm 2 mps 690 mmHg 63%

    Tomorrow, 26 April, Wednesday

    Time Temperature Precipitation Wind Pressure Humidity
    00:00 +6°C° 0 mm 2 mps 690 mmHg 65%
    01:00 +6°C° 0 mm 2 mps 690 mmHg 65%
    02:00 +6°C° 0 mm 2 mps 691 mmHg 66%
    03:00 +5°C° 0 mm 2 mps 691 mmHg 66%
    04:00 +6°C° 0 mm 1 mps 691 mmHg 65%
    05:00 +7°C° 0 mm 1 mps 691 mmHg 65%
    06:00 +7°C° 0 mm 1 mps 692 mmHg 64%
    07:00 +9°C° 0 mm 1 mps 692 mmHg 55%
    08:00 +12°C° 0 mm 1 mps 692 mmHg 46%
    09:00 +14°C° 0 mm 1 mps 692 mmHg 38%
    10:00 +15°C° 0 mm 1 mps 692 mmHg 35%
    11:00 +17°C° 0 mm 2 mps 692 mmHg 33%
    12:00 +18°C° 0 mm 2 mps 692 mmHg 31%
    13:00 +18°C° 0 mm 2 mps 691 mmHg 31%
    14:00 +19°C° 0 mm 2 mps 691 mmHg 32%
    15:00 +19°C° 0 mm 2 mps 691 mmHg 33%
    16:00 +18°C° 0 mm 2 mps 691 mmHg 38%
    17:00 +17°C° 0 mm 2 mps 691 mmHg 43%
    18:00 +16°C° 0 mm 2 mps 691 mmHg 48%
    19:00 +14°C° 0 mm 2 mps 691 mmHg 54%
    20:00 +12°C° 0 mm 2 mps 691 mmHg 60%
    21:00 +10°C° 0 mm 2 mps 692 mmHg 66%
    22:00 +9°C° 0 mm 2 mps 692 mmHg 68%
    23:00 +8°C° 0 mm 2 mps 692 mmHg 70%

    Day after tomorrow, 27 April, Thursday

    Time Temperature Precipitation Wind Pressure Humidity
    00:00 +8°C° 0 mm 2 mps 692 mmHg 72%
    01:00 +8°C° 0 mm 2 mps 692 mmHg 73%
    02:00 +7°C° 0 mm 2 mps 692 mmHg 74%
    03:00 +8°C° 0 mm 1 mps 692 mmHg 75%
    04:00 +8°C° 0 mm 1 mps 692 mmHg 73%
    05:00 +8°C° 0 mm 1 mps 692 mmHg 72%
    06:00 +8°C° 0 mm 1 mps 692 mmHg 71%
    07:00 +11°C° 0 mm 1 mps 692 mmHg 61%
    08:00 +13°C° 0 mm 1 mps 692 mmHg 52%
    09:00 +15°C° 0 mm 1 mps 692 mmHg 42%
    10:00 +17°C° 0 mm 2 mps 692 mmHg 38%
    11:00 +18°C° 0 mm 2 mps 691 mmHg 34%
    12:00 +19°C° 0 mm 2 mps 691 mmHg 30%
    13:00 +20°C° 0 mm 2 mps 691 mmHg 29%
    14:00 +20°C° 0 mm 3 mps 690 mmHg 28%
    15:00 +21°C° 0 mm 3 mps 690 mmHg 28%
    16:00 +20°C° 0 mm 2 mps 690 mmHg 33%
    17:00 +18°C° 0 mm 2 mps 690 mmHg 38%
    18:00 +17°C° 0 mm 2 mps 690 mmHg 43%
    19:00 +15°C° 0 mm 2 mps 690 mmHg 50%
    20:00 +14°C° 0 mm 2 mps 690 mmHg 57%
    21:00 +11°C° 0 mm 3 mps 691 mmHg 65%
    22:00 +10°C° 0 mm 2 mps 691 mmHg 67%
    23:00 +10°C° 0 mm 2 mps 691 mmHg 69%

    28 April, Friday

    Time Temperature Precipitation Wind Pressure Humidity
    00:00 +9°C° 0 mm 2 mps 691 mmHg 71%
    01:00 +9°C° 0 mm 2 mps 691 mmHg 72%
    02:00 +9°C° 0 mm 2 mps 691 mmHg 73%
    03:00 +9°C° 0 mm 1 mps 691 mmHg 74%
    04:00 +10°C° 0 mm 1 mps 691 mmHg 74%
    05:00 +10°C° 0 mm 1 mps 691 mmHg 73%
    06:00 +10°C° 0 mm 1 mps 691 mmHg 72%
    07:00 +12°C° 0 mm 1 mps 691 mmHg 62%
    08:00 +15°C° 0 mm 1 mps 691 mmHg 52%
    09:00 +18°C° 0 mm 1 mps 691 mmHg 43%
    10:00 +19°C° 0 mm 2 mps 691 mmHg 40%
    11:00 +20°C° 0 mm 2 mps 690 mmHg 37%
    12:00 +21°C° 0 mm 2 mps 690 mmHg 33%
    13:00 +23°C° 0 mm 2 mps 689 mmHg 33%
    14:00 +23°C° 0 mm 2 mps 689 mmHg 32%
    15:00 +23°C° 0 mm 2 mps 688 mmHg 31%
    16:00 +21°C° 0 mm 2 mps 688 mmHg 36%
    17:00 +21°C° 0 mm 1 mps 688 mmHg 41%
    18:00 +20°C° 0 mm 1 mps 688 mmHg 46%
    19:00 +19°C° 0.1 mm 1 mps 688 mmHg 52%
    20:00 +16°C° 0.1 mm 2 mps 689 mmHg 58%
    21:00 +15°C° 0.1 mm 2 mps 689 mmHg 64%
    22:00 +15°C° 0.1 mm 2 mps 689 mmHg 67%
    23:00 +14°C° 0.1 mm 1 mps 688 mmHg 70%

    29 April, Saturday

    Time Temperature Precipitation Wind Pressure Humidity
    00:00 +14°C° 0.1 mm 1 mps 688 mmHg 74%
    01:00 +13°C° 0.2 mm 1 mps 688 mmHg 75%
    02:00 +13°C° 0.2 mm 1 mps 688 mmHg 76%
    03:00 +13°C° 0.2 mm 1 mps 688 mmHg 78%
    04:00 +13°C° 0.2 mm 1 mps 688 mmHg 77%
    05:00 +13°C° 0.2 mm 1 mps 688 mmHg 77%
    06:00 +13°C° 0.2 mm 1 mps 688 mmHg 76%
    07:00 +15°C° 0 mm 1 mps 688 mmHg 68%
    08:00 +18°C° 0 mm 1 mps 688 mmHg 60%
    09:00 +20°C° 0 mm 1 mps 688 mmHg 52%
    10:00 +21°C° 0.1 mm 1 mps 688 mmHg 49%
    11:00 +22°C° 0.1 mm 1 mps 687 mmHg 45%
    12:00 +24°C° 0.1 mm 2 mps 687 mmHg 41%
    13:00 +23°C° 0.3 mm 2 mps 687 mmHg 42%
    14:00 +23°C° 0.3 mm 2 mps 687 mmHg 42%
    15:00 +22°C° 0.3 mm 3 mps 686 mmHg 43%
    16:00 +21°C° 0.2 mm 2 mps 686 mmHg 46%
    17:00 +20°C° 0.2 mm 2 mps 686 mmHg 50%
    18:00 +20°C° 0.2 mm 2 mps 686 mmHg 53%
    19:00 +18°C° 0.2 mm 2 mps 686 mmHg 58%
    20:00 +16°C° 0.2 mm 1 mps 686 mmHg 63%
    21:00 +14°C° 0.2 mm 1 mps 686 mmHg 69%
    22:00 +14°C° 0.1 mm 1 mps 686 mmHg 71%
    23:00 +14°C° 0.1 mm 1 mps 686 mmHg 72%

    30 April, Sunday

    Time Temperature Precipitation Wind Pressure Humidity
    00:00 +13°C° 0.1 mm 1 mps 686 mmHg 74%
    01:00 +13°C° 0.1 mm 1 mps 685 mmHg 75%
    02:00 +12°C° 0.1 mm 1 mps 685 mmHg 76%
    03:00 +12°C° 0.1 mm 1 mps 685 mmHg 77%
    04:00 +12°C° 0 mm 1 mps 685 mmHg 76%
    05:00 +12°C° 0 mm 1 mps 685 mmHg 74%
    06:00 +13°C° 0 mm 1 mps 686 mmHg 72%
    07:00 +15°C° 0 mm 1 mps 686 mmHg 63%
    08:00 +19°C° 0 mm 1 mps 686 mmHg 54%
    09:00 +21°C° 0 mm 1 mps 687 mmHg 46%
    10:00 +23°C° 0 mm 1 mps 686 mmHg 42%
    11:00 +24°C° 0 mm 1 mps 686 mmHg 38%
    12:00 +25°C° 0 mm 2 mps 686 mmHg 35%
    13:00 +25°C° 0.1 mm 2 mps 686 mmHg 34%
    14:00 +26°C° 0.1 mm 2 mps 685 mmHg 33%
    15:00 +26°C° 0.1 mm 2 mps 685 mmHg 32%
    16:00 +25°C° 0.2 mm 1 mps 685 mmHg 37%
    17:00 +23°C° 0.2 mm 1 mps 685 mmHg 42%
    18:00 +22°C° 0.2 mm 1 mps 685 mmHg 47%
    19:00 +20°C° 0.3 mm 1 mps 685 mmHg 52%
    20:00 +19°C° 0.3 mm 1 mps 685 mmHg 57%
    21:00 +16°C° 0.3 mm 1 mps 685 mmHg 62%
    22:00 +15°C° 0.1 mm 1 mps 685 mmHg 64%
    23:00 +14°C° 0.1 mm 1 mps 685 mmHg 66%
    Show more